Weather reports worldwide

Advertisment
Frittenden, United Kingdom (99182): temperature & dewpoint: 12.01.2018 06:00:00 - 18.01.2018 06:00:00 (GMT)Frittenden, United Kingdom (99182): precipitation: 12.01.2018 06:00:00 - 18.01.2018 06:00:00 (GMT)
Date & Time tt [°C] td [°C] rr [mm]
18.01.2018 06:00:00 - - -
18.01.2018 05:00:00 11,1 6,4 0,0
18.01.2018 04:00:00 10,6 7,9 0,0
18.01.2018 03:00:00 10,3 8,5 0,0
18.01.2018 02:00:00 9,6 8,6 0,4
18.01.2018 01:00:00 8,1 7,6 1,0
18.01.2018 00:00:00 6,6 5,6 0,6
17.01.2018 23:00:00 6,6 4,4 0,0
17.01.2018 22:00:00 6,5 2,6 0,0
17.01.2018 21:00:00 6,1 1,4 0,0
17.01.2018 20:00:00 5,6 0,7 0,0
17.01.2018 19:00:00 5,1 -0,1 0,0
17.01.2018 18:00:00 5,9 -0,2 0,0
17.01.2018 17:00:00 6,0 -0,8 0,0
17.01.2018 16:00:00 6,5 -1,3 0,0
17.01.2018 15:00:00 7,1 -1,3 0,0
17.01.2018 14:00:00 7,2 -0,9 0,0
17.01.2018 13:00:00 7,5 -0,6 0,0
17.01.2018 12:00:00 6,6 -0,7 0,0
17.01.2018 11:00:00 5,9 -0,7 0,0
17.01.2018 10:00:00 4,8 -0,9 0,0
17.01.2018 09:00:00 3,7 -1,2 0,0
17.01.2018 08:00:00 3,5 -1,4 0,0
17.01.2018 07:00:00 3,0 -1,7 0,0
17.01.2018 06:00:00 2,7 -2,1 0,0
17.01.2018 05:00:00 2,7 -1,9 0,0
17.01.2018 04:00:00 2,2 -0,8 0,0
17.01.2018 03:00:00 2,8 -1,5 0,0
17.01.2018 02:00:00 2,6 -1,2 0,0
17.01.2018 01:00:00 2,9 -1,1 0,0
17.01.2018 00:00:00 3,3 -0,6 0,0
16.01.2018 23:00:00 3,3 -0,3 0,0
16.01.2018 22:00:00 3,3 0,2 0,0
16.01.2018 21:00:00 3,8 0,7 0,0
16.01.2018 20:00:00 2,7 1,6 0,0
16.01.2018 19:00:00 3,2 1,7 0,6
16.01.2018 18:00:00 5,3 0,6 0,0
16.01.2018 17:00:00 5,4 -0,3 0,0
16.01.2018 16:00:00 5,9 -1,0 0,0
16.01.2018 15:00:00 6,7 -1,1 0,0
16.01.2018 14:00:00 7,0 -0,5 0,0
16.01.2018 13:00:00 7,3 0,0 0,0
16.01.2018 12:00:00 7,2 0,9 0,0
16.01.2018 11:00:00 6,7 0,8 0,0
16.01.2018 10:00:00 6,3 -0,2 0,0
16.01.2018 09:00:00 5,6 0,5 0,0
16.01.2018 08:00:00 5,3 1,3 0,0
16.01.2018 07:00:00 6,0 1,9 0,0
16.01.2018 06:00:00 6,2 2,8 0,0
16.01.2018 05:00:00 6,5 3,4 0,0
16.01.2018 04:00:00 6,3 3,8 0,2
16.01.2018 03:00:00 6,7 4,5 0,2
16.01.2018 02:00:00 7,2 3,6 0,0
16.01.2018 01:00:00 6,7 3,2 0,0
16.01.2018 00:00:00 6,7 3,9 0,0
15.01.2018 23:00:00 6,7 3,7 0,0
15.01.2018 22:00:00 6,8 3,7 0,0
15.01.2018 21:00:00 6,3 3,3 0,0
15.01.2018 20:00:00 6,8 3,9 0,0
15.01.2018 19:00:00 7,9 4,3 0,0
15.01.2018 18:00:00 8,6 5,3 0,0
15.01.2018 17:00:00 9,8 7,2 0,0
15.01.2018 16:00:00 10,5 7,8 0,0
15.01.2018 15:00:00 10,5 9,3 0,2
15.01.2018 14:00:00 10,6 9,5 0,0
15.01.2018 13:00:00 9,5 8,9 0,4
15.01.2018 12:00:00 9,0 8,3 2,2
15.01.2018 11:00:00 8,5 7,9 0,8
15.01.2018 10:00:00 8,3 7,6 0,4
15.01.2018 09:00:00 7,4 6,9 1,0
15.01.2018 08:00:00 7,2 6,3 1,2
15.01.2018 07:00:00 7,3 6,2 0,6
15.01.2018 06:00:00 7,3 6,1 0,2
15.01.2018 05:00:00 7,3 5,5 0,0
15.01.2018 04:00:00 7,2 4,9 0,0
15.01.2018 03:00:00 6,5 4,4 0,0
15.01.2018 02:00:00 6,7 4,6 0,0
15.01.2018 01:00:00 4,8 2,9 0,0
15.01.2018 00:00:00 4,2 2,2 0,0
14.01.2018 23:00:00 4,3 2,0 0,0
14.01.2018 22:00:00 4,7 1,8 0,0
14.01.2018 21:00:00 4,3 1,9 0,0
14.01.2018 20:00:00 4,3 2,1 0,0
14.01.2018 19:00:00 4,2 2,2 0,0
14.01.2018 18:00:00 3,7 2,1 0,0
14.01.2018 17:00:00 3,4 1,7 0,0
14.01.2018 16:00:00 4,7 1,4 0,0
14.01.2018 15:00:00 5,8 1,9 0,0
14.01.2018 14:00:00 7,7 1,8 0,0
14.01.2018 13:00:00 7,0 1,9 0,0
14.01.2018 12:00:00 5,6 2,0 0,0
14.01.2018 11:00:00 6,0 2,3 0,0
14.01.2018 10:00:00 4,7 2,0 0,0
14.01.2018 09:00:00 3,9 1,2 0,0
14.01.2018 08:00:00 4,0 1,4 0,0
14.01.2018 07:00:00 3,8 1,1 0,0
14.01.2018 06:00:00 3,4 1,3 0,0
14.01.2018 05:00:00 2,5 1,2 0,0
14.01.2018 04:00:00 1,5 0,7 0,0
14.01.2018 03:00:00 1,5 0,5 0,0
14.01.2018 02:00:00 1,7 -0,2 0,0
14.01.2018 01:00:00 3,9 1,5 0,0
14.01.2018 00:00:00 4,1 1,6 0,0
13.01.2018 23:00:00 4,0 1,7 0,0
13.01.2018 22:00:00 4,1 1,8 0,0
13.01.2018 21:00:00 4,0 2,1 0,0
13.01.2018 20:00:00 4,1 2,1 0,0
13.01.2018 19:00:00 4,3 2,3 0,0
13.01.2018 18:00:00 4,6 2,7 0,0
13.01.2018 17:00:00 4,8 2,8 0,0
13.01.2018 16:00:00 5,2 2,8 0,0
13.01.2018 15:00:00 5,4 3,2 0,0
13.01.2018 14:00:00 5,9 3,7 0,0
13.01.2018 13:00:00 6,0 3,5 0,0
13.01.2018 12:00:00 5,6 3,5 0,0
13.01.2018 11:00:00 5,6 3,7 0,0
13.01.2018 10:00:00 5,9 4,1 0,0
13.01.2018 09:00:00 5,9 4,2 0,0
13.01.2018 08:00:00 5,5 4,1 0,0
13.01.2018 07:00:00 5,4 3,8 0,0
13.01.2018 06:00:00 4,8 3,3 0,0
13.01.2018 05:00:00 4,3 3,1 0,0
13.01.2018 04:00:00 4,6 3,1 0,0
13.01.2018 03:00:00 5,0 3,0 0,0
13.01.2018 02:00:00 5,0 3,5 0,0
13.01.2018 01:00:00 5,2 3,7 0,0
13.01.2018 00:00:00 5,2 4,0 0,0
12.01.2018 23:00:00 4,6 4,2 0,0
12.01.2018 22:00:00 4,3 4,2 0,0
12.01.2018 21:00:00 3,7 3,5 0,0
12.01.2018 20:00:00 3,5 3,4 0,0
12.01.2018 19:00:00 3,3 2,7 0,0
12.01.2018 18:00:00 4,5 3,6 0,0
12.01.2018 17:00:00 5,8 4,9 0,0
12.01.2018 16:00:00 5,7 4,0 0,0
12.01.2018 15:00:00 6,8 4,8 0,0
12.01.2018 14:00:00 7,2 6,0 0,0
12.01.2018 13:00:00 - - 0,0
12.01.2018 12:00:00 6,4 6,4 0,0
12.01.2018 11:00:00 5,8 5,8 0,0
12.01.2018 10:00:00 4,3 4,3 0,0
12.01.2018 09:00:00 2,9 2,8 0,0
12.01.2018 08:00:00 3,6 3,5 0,0
12.01.2018 07:00:00 4,3 4,2 0,0
12.01.2018 06:00:00 4,7 4,7 0,0

tt = temperature
td = dewpoint
rr = precipitation

Next stations